| time (UTC) | temp F | wind direction | speed knots | gust knots | rain 1hr in | rain 24hr in | rain mn in | humidity % | barometer mb |
| 20260502123018 | 74 | 261 | 4.3 | 9.6 | 0.00 | 0.00 | 0.00 | 47 | 1017.3 |
| 20260502122019 | 73 | 265 | 2.6 | 7.8 | 0.00 | 0.00 | 0.00 | 49 | 1017.5 |
| 20260502121018 | 73 | 260 | 4.3 | 10.4 | 0.00 | 0.00 | 0.00 | 48 | 1017.7 |
| 20260502115018 | 72 | 256 | 3.5 | 9.6 | 0.00 | 0.00 | 0.00 | 49 | 1017.9 |
| 20260502114019 | 72 | 266 | 4.3 | 12.2 | 0.00 | 0.00 | 0.00 | 48 | 1018.0 |
| 20260502113018 | 72 | 269 | 2.6 | 8.7 | 0.00 | 0.00 | 0.00 | 49 | 1018.1 |
| 20260502112058 | 71 | 264 | 4.3 | 9.6 | 0.00 | 0.00 | 0.00 | 49 | 1018.4 |
| 20260502111018 | 71 | 301 | 1.7 | 5.2 | 0.00 | 0.00 | 0.00 | 50 | 1018.4 |
| 20260502110017 | 71 | 262 | 3.5 | 10.4 | 0.00 | 0.00 | 0.00 | 50 | 1018.5 |
| 20260502105038 | 70 | 184 | 2.6 | 8.7 | 0.00 | 0.00 | 0.00 | 49 | 1018.5 |
| 20260502104017 | 70 | 270 | 3.5 | 6.1 | 0.00 | 0.00 | 0.00 | 50 | 1018.5 |
| 20260502103058 | 70 | 256 | 3.5 | 6.1 | 0.00 | 0.00 | 0.00 | 49 | 1018.7 |
| 20260502102017 | 69 | 260 | 1.7 | 7.8 | 0.00 | 0.00 | 0.00 | 48 | 1018.7 |
| 20260502101018 | 69 | 242 | 2.6 | 7.8 | 0.00 | 0.00 | 0.00 | 49 | 1018.9 |
| 20260502091017 | 67 | 253 | 4.3 | 10.4 | 0.00 | 0.00 | 0.00 | 45 | 1019.5 |
| 20260502071018 | 63 | 301 | 1.7 | 6.1 | 0.00 | 0.00 | 0.00 | 48 | 1019.6 |
| 20260502070017 | 63 | 272 | 0.9 | 6.1 | 0.00 | 0.00 | 0.00 | 48 | 1019.5 |
| 20260502065018 | 62 | 220 | 1.7 | 7.0 | 0.00 | 0.00 | 0.00 | 48 | 1019.5 |
| 20260502064018 | 61 | 257 | 1.7 | 6.1 | 0.00 | 0.00 | 0.00 | 49 | 1019.5 |
| 20260502063018 | 61 | 202 | 2.6 | 7.8 | 0.00 | 0.00 | 0.00 | 49 | 1019.4 |
| 20260502062059 | 60 | 195 | 2.6 | 8.7 | 0.00 | 0.00 | 0.00 | 51 | 1019.3 |
| 20260502061019 | 60 | 204 | 2.6 | 7.8 | 0.00 | 0.00 | 0.00 | 51 | 1019.6 |
| 20260502060018 | 59 | 289 | 1.7 | 7.0 | 0.00 | 0.00 | 0.00 | 52 | 1019.8 |
| 20260502055019 | 59 | 263 | 1.7 | 5.2 | 0.00 | 0.00 | 0.00 | 53 | 1019.7 |
| 20260502054018 | 58 | 294 | 1.7 | 5.2 | 0.00 | 0.00 | 0.00 | 52 | 1019.5 |
| 20260502053018 | 58 | 218 | 2.6 | 5.2 | 0.00 | 0.00 | 0.00 | 53 | 1019.4 |
| 20260502052018 | 57 | 256 | 1.7 | 6.1 | 0.00 | 0.00 | 0.00 | 53 | 1019.5 |
| 20260502051038 | 57 | 319 | 1.7 | 5.2 | 0.00 | 0.00 | 0.00 | 54 | 1019.4 |
| 20260502050018 | 57 | 327 | 2.6 | 5.2 | 0.00 | 0.00 | 0.00 | 54 | 1019.5 |
| 20260502045038 | 57 | 21 | 1.7 | 4.3 | 0.00 | 0.00 | 0.00 | 54 | 1019.4 |
| 20260502044041 | 56 | 252 | 2.6 | 5.2 | 0.00 | 0.00 | 0.00 | 54 | 1019.5 |
| 20260502043019 | 56 | 154 | 1.7 | 3.5 | 0.00 | 0.00 | 0.00 | 53 | 1019.5 |
| 20260502042059 | 56 | 252 | 2.6 | 7.0 | 0.00 | 0.00 | 0.00 | 53 | 1019.5 |
| 20260502041018 | 56 | 229 | 2.6 | 5.2 | 0.00 | 0.00 | 0.00 | 53 | 1019.5 |
| 20260502040019 | 57 | 227 | 1.7 | 4.3 | 0.00 | 0.00 | 0.00 | 53 | 1019.7 |
| 20260502035020 | 57 | 212 | 2.6 | 7.0 | 0.00 | 0.00 | 0.00 | 54 | 1019.7 |
| 20260502034039 | 57 | 299 | 2.6 | 7.0 | 0.00 | 0.00 | 0.00 | 53 | 1019.8 |
| 20260502033018 | 57 | 280 | 1.7 | 3.5 | 0.00 | 0.00 | 0.00 | 53 | 1020.0 |
| 20260502032019 | 57 | 257 | 1.7 | 5.2 | 0.00 | 0.00 | 0.00 | 52 | 1020.0 |
| 20260502031020 | 57 | 204 | 1.7 | 7.0 | 0.00 | 0.00 | 0.00 | 52 | 1020.0 |
| 20260502030018 | 57 | 171 | 1.7 | 4.3 | 0.00 | 0.00 | 0.00 | 52 | 1020.0 |
| 20260502025017 | 57 | 280 | 0.9 | 3.5 | 0.00 | 0.00 | 0.00 | 51 | 1020.1 |
| 20260502024018 | 58 | 253 | 0.9 | 3.5 | 0.00 | 0.00 | 0.00 | 51 | 1020.0 |
| 20260502023017 | 58 | 233 | 0.9 | 4.3 | 0.00 | 0.00 | 0.00 | 50 | 1020.1 |
| 20260502022018 | 58 | 221 | 0.9 | 5.2 | 0.00 | 0.00 | 0.00 | 50 | 1020.1 |
| 20260502021018 | 58 | 250 | 0.9 | 2.6 | 0.00 | 0.00 | 0.00 | 49 | 1020.3 |
| 20260502020019 | 59 | 255 | 0.0 | 3.5 | 0.00 | 0.00 | 0.00 | 49 | 1020.2 |
| 20260502015019 | 59 | 236 | 1.7 | 3.5 | 0.00 | 0.00 | 0.00 | 49 | 1020.3 |
| 20260502014018 | 59 | 246 | 1.7 | 3.5 | 0.00 | 0.00 | 0.00 | 49 | 1020.3 |
| 20260502013039 | 59 | 246 | 1.7 | 5.2 | 0.00 | 0.00 | 0.00 | 49 | 1020.4 |
| 20260502012018 | 59 | 251 | 0.9 | 4.3 | 0.00 | 0.00 | 0.00 | 48 | 1020.5 |
| 20260502011020 | 59 | 259 | 1.7 | 4.3 | 0.00 | 0.00 | 0.00 | 48 | 1020.7 |
| 20260502010018 | 59 | 246 | 1.7 | 4.3 | 0.00 | 0.00 | 0.00 | 48 | 1020.9 |
| 20260502005018 | 59 | 261 | 1.7 | 4.3 | 0.00 | 0.00 | 0.00 | 48 | 1020.9 |
| 20260502004017 | 59 | 256 | 1.7 | 3.5 | 0.00 | 0.00 | 0.00 | 48 | 1021.0 |
| 20260502003018 | 59 | 243 | 1.7 | 3.5 | 0.00 | 0.00 | 0.00 | 47 | 1021.0 |
| 20260502002017 | 60 | 251 | 1.7 | 3.5 | 0.00 | 0.00 | 0.00 | 47 | 1021.2 |
| 20260502001038 | 60 | 267 | 0.9 | 2.6 | 0.00 | 0.00 | 0.00 | 46 | 1021.3 |
| 20260502000017 | 60 | 248 | 1.7 | 4.3 | 0.00 | 0.00 | 0.00 | 46 | 1021.3 |
| 20260501235019 | 60 | 249 | 0.9 | 4.3 | 0.00 | 0.00 | 0.00 | 45 | 1021.4 |
| 20260501234018 | 60 | 246 | 1.7 | 3.5 | 0.00 | 0.00 | 0.00 | 44 | 1021.5 |
| 20260501233019 | 61 | 251 | 0.9 | 3.5 | 0.00 | 0.00 | 0.00 | 44 | 1021.4 |
| 20260501232038 | 61 | 243 | 1.7 | 5.2 | 0.00 | 0.00 | 0.00 | 44 | 1021.5 |
| 20260501231018 | 61 | 267 | 0.9 | 5.2 | 0.00 | 0.00 | 0.00 | 43 | 1021.5 |
| 20260501230017 | 61 | 243 | 1.7 | 3.5 | 0.00 | 0.00 | 0.00 | 43 | 1021.6 |
| 20260501225019 | 62 | 237 | 1.7 | 5.2 | 0.00 | 0.00 | 0.00 | 43 | 1021.6 |
| 20260501224017 | 62 | 248 | 1.7 | 6.1 | 0.00 | 0.00 | 0.00 | 42 | 1021.6 |
| 20260501223018 | 62 | 246 | 2.6 | 6.1 | 0.00 | 0.00 | 0.00 | 42 | 1021.7 |
| 20260501222041 | 62 | 237 | 1.7 | 5.2 | 0.00 | 0.00 | 0.00 | 42 | 1021.7 |
| 20260501221018 | 62 | 251 | 2.6 | 4.3 | 0.00 | 0.00 | 0.00 | 42 | 1021.7 |
| 20260501220019 | 62 | 248 | 1.7 | 4.3 | 0.00 | 0.00 | 0.00 | 42 | 1021.8 |
| 20260501215018 | 62 | 250 | 1.7 | 4.3 | 0.00 | 0.00 | 0.00 | 42 | 1021.7 |
| 20260501214041 | 63 | 246 | 1.7 | 4.3 | 0.00 | 0.00 | 0.00 | 41 | 1021.8 |
| 20260501213018 | 63 | 254 | 1.7 | 4.3 | 0.00 | 0.00 | 0.00 | 41 | 1021.8 |
| 20260501212019 | 63 | 239 | 1.7 | 6.1 | 0.00 | 0.00 | 0.00 | 41 | 1021.7 |
| 20260501211018 | 63 | 233 | 1.7 | 5.2 | 0.00 | 0.00 | 0.00 | 40 | 1021.8 |
| 20260501210039 | 63 | 267 | 0.9 | 4.3 | 0.00 | 0.00 | 0.00 | 40 | 1021.8 |
| 20260501205018 | 63 | 247 | 1.7 | 4.3 | 0.00 | 0.00 | 0.00 | 40 | 1021.8 |
| 20260501204017 | 63 | 227 | 1.7 | 5.2 | 0.00 | 0.00 | 0.00 | 40 | 1021.9 |
| 20260501203018 | 64 | 256 | 0.9 | 6.1 | 0.00 | 0.00 | 0.00 | 40 | 1021.9 |
| 20260501202037 | 64 | 266 | 0.9 | 3.5 | 0.00 | 0.00 | 0.00 | 40 | 1022.0 |
| 20260501201018 | 64 | 212 | 0.9 | 3.5 | 0.00 | 0.00 | 0.00 | 40 | 1021.9 |
| 20260501200037 | 64 | 220 | 0.9 | 3.5 | 0.00 | 0.00 | 0.00 | 40 | 1022.0 |
| 20260501195019 | 65 | 253 | 1.7 | 3.5 | 0.00 | 0.00 | 0.00 | 40 | 1021.9 |
| 20260501194021 | 65 | 288 | 0.9 | 2.6 | 0.00 | 0.00 | 0.00 | 39 | 1021.9 |
| 20260501193019 | 65 | 274 | 0.9 | 2.6 | 0.00 | 0.00 | 0.00 | 39 | 1021.8 |
| 20260501192018 | 65 | 241 | 0.9 | 2.6 | 0.00 | 0.00 | 0.00 | 38 | 1021.8 |
| 20260501191039 | 66 | 202 | 0.9 | 3.5 | 0.00 | 0.00 | 0.00 | 38 | 1021.9 |
| 20260501190018 | 66 | 338 | 0.9 | 2.6 | 0.00 | 0.00 | 0.00 | 37 | 1021.8 |
| 20260501185039 | 67 | 263 | 0.9 | 2.6 | 0.00 | 0.00 | 0.00 | 36 | 1021.9 |
| 20260501184019 | 67 | 245 | 0.9 | 3.5 | 0.00 | 0.00 | 0.00 | 36 | 1021.9 |
| 20260501183018 | 68 | 253 | 0.9 | 3.5 | 0.00 | 0.00 | 0.00 | 35 | 1021.9 |
| 20260501182039 | 68 | 253 | 1.7 | 3.5 | 0.00 | 0.00 | 0.00 | 34 | 1021.8 |
| 20260501181018 | 69 | 206 | 1.7 | 5.2 | 0.00 | 0.00 | 0.00 | 34 | 1021.9 |
| 20260501180019 | 69 | 167 | 1.7 | 5.2 | 0.00 | 0.00 | 0.00 | 32 | 1021.8 |
| 20260501175020 | 70 | 196 | 1.7 | 5.2 | 0.00 | 0.00 | 0.00 | 32 | 1021.7 |
| 20260501174019 | 70 | 201 | 2.6 | 10.4 | 0.00 | 0.00 | 0.00 | 31 | 1021.8 |
| 20260501173018 | 70 | 224 | 2.6 | 7.8 | 0.00 | 0.00 | 0.00 | 30 | 1021.8 |
| 20260501172018 | 71 | 83 | 2.6 | 8.7 | 0.00 | 0.00 | 0.00 | 28 | 1021.8 |
| 20260501171019 | 71 | 246 | 1.7 | 8.7 | 0.00 | 0.00 | 0.00 | 29 | 1021.9 |
| 20260501170059 | 71 | 156 | 2.6 | 6.1 | 0.00 | 0.00 | 0.00 | 28 | 1021.9 |
| 20260501165017 | 72 | 164 | 1.7 | 7.0 | 0.00 | 0.00 | 0.00 | 27 | 1021.9 |
| 20260501164018 | 72 | 254 | 2.6 | 7.8 | 0.00 | 0.00 | 0.00 | 28 | 1021.9 |
| 20260501163017 | 73 | 241 | 2.6 | 9.6 | 0.00 | 0.00 | 0.00 | 27 | 1022.1 |
| 20260501162018 | 73 | 226 | 3.5 | 9.6 | 0.00 | 0.00 | 0.00 | 26 | 1022.1 |
| 20260501161018 | 74 | 241 | 2.6 | 7.8 | 0.00 | 0.00 | 0.00 | 26 | 1022.1 |
| 20260501160018 | 74 | 250 | 2.6 | 10.4 | 0.00 | 0.00 | 0.00 | 26 | 1022.2 |
| 20260501155017 | 74 | 123 | 2.6 | 7.0 | 0.00 | 0.00 | 0.00 | 26 | 1022.3 |
| 20260501154017 | 74 | 218 | 3.5 | 12.2 | 0.00 | 0.00 | 0.00 | 26 | 1022.3 |
| 20260501153106 | 74 | 244 | 4.3 | 14.8 | 0.00 | 0.00 | 0.00 | 26 | 1022.5 |
| 20260501152017 | 74 | 234 | 2.6 | 11.3 | 0.00 | 0.00 | 0.00 | 25 | 1022.6 |
| 20260501151017 | 74 | 108 | 4.3 | 9.6 | 0.00 | 0.00 | 0.00 | 26 | 1022.6 |
| 20260501150059 | 74 | 76 | 3.5 | 9.6 | 0.00 | 0.00 | 0.00 | 25 | 1022.8 |
| 20260501145018 | 74 | 151 | 2.6 | 7.8 | 0.00 | 0.00 | 0.00 | 25 | 1023.0 |
| 20260501144019 | 74 | 221 | 4.3 | 11.3 | 0.00 | 0.00 | 0.00 | 25 | 1023.0 |
| 20260501142037 | 73 | 270 | 3.5 | 10.4 | 0.00 | 0.00 | 0.00 | 26 | 1023.1 |
| 20260501141018 | 73 | 82 | 3.5 | 8.7 | 0.00 | 0.00 | 0.00 | 26 | 1023.3 |
| 20260501140019 | 73 | 80 | 3.5 | 9.6 | 0.00 | 0.00 | 0.00 | 28 | 1023.2 |
| 20260501135018 | 73 | 61 | 3.5 | 7.0 | 0.00 | 0.00 | 0.00 | 27 | 1023.4 |
| 20260501134017 | 72 | 110 | 2.6 | 7.8 | 0.00 | 0.00 | 0.00 | 26 | 1023.6 |
| 20260501133038 | 72 | 131 | 2.6 | 8.7 | 0.00 | 0.00 | 0.00 | 27 | 1023.7 |